Date String (YYYY-MM-DD hh:mm:ss) UTC,Instrument flags,Ambient pressure (hPa),Sample flow (lpm),Bypass flow (lpm),Sample temperature (°C),Ambient temperature (°C),ASC tube jacket temperature (°C),LED temperature (°C),Box temperature (°C),Sample RH (%),Span deviation,Mass concentration (μg/m³),Mass concentration (μg/m³),Mass concentration (μg/m³)
DateTimeUTC,F1_M11,P_M11,Q1_M11,Q2_M11,T1_M11,T2_M11,T3_M11,T4_M11,T5_M11,U1_M11,ZSPAN_M11,X0_M11,X2_M11,X1_M11
2021-11-10 20:00:00,,0824.0,4.99,0.00,26.1,25.2,00.0,35.3,27.9,10.0,0000.0,0008.01,0003.04,0002.21
2021-11-10 20:01:00,,0824.0,4.99,0.00,26.1,25.2,00.0,35.3,27.8,10.2,0000.0,0007.88,0003.11,0002.21
2021-11-10 20:02:00,,0823.9,5.02,0.00,26.1,25.1,00.0,35.3,27.8,10.2,0000.0,0007.36,0003.07,0002.20
2021-11-10 20:03:00,,0823.9,5.00,0.00,26.1,25.2,00.0,35.3,27.8,09.8,0000.0,0006.93,0003.01,0002.19
2021-11-10 20:04:00,,0824.0,4.99,0.00,26.1,25.2,00.0,35.3,27.9,09.8,0000.0,0006.59,0002.93,0002.18
2021-11-10 20:05:00,,0823.9,5.00,0.00,26.1,25.1,00.0,35.3,27.8,09.8,0000.0,0006.30,0002.88,0002.16
2021-11-10 20:06:00,,0824.0,5.00,0.00,26.1,25.2,00.0,35.3,27.8,09.8,0000.0,0006.16,0002.86,0002.14
2021-11-10 20:07:00,,0823.9,4.98,0.00,26.1,25.1,00.0,35.3,27.8,09.9,0000.0,0006.31,0002.88,0002.12
2021-11-10 20:08:00,,0824.0,5.01,0.00,26.1,25.1,00.0,35.3,27.8,09.6,0000.0,0006.46,0002.91,0002.11
2021-11-10 20:09:00,,0824.0,5.02,0.00,26.1,25.1,00.0,35.3,27.8,09.6,0000.0,0006.14,0002.92,0002.13
2021-11-10 20:10:00,,0824.0,5.00,0.00,26.1,25.1,00.0,35.3,27.8,09.9,0000.0,0005.50,0002.88,0002.12
2021-11-10 20:11:00,,0824.0,5.00,0.00,26.1,25.1,00.0,35.3,27.9,09.6,0000.0,0004.75,0002.82,0002.12
2021-11-10 20:12:00,,0824.0,4.98,0.00,26.1,25.1,00.0,35.3,27.9,09.7,0000.0,0004.81,0002.75,0002.10
2021-11-10 20:13:00,,0824.0,5.00,0.00,26.1,25.2,00.0,35.3,27.9,10.1,0000.0,0005.45,0002.79,0002.11
2021-11-10 20:14:00,,0824.1,5.00,0.00,26.1,25.1,00.0,35.3,27.8,10.4,0000.0,0005.65,0002.82,0002.13
2021-11-10 20:15:00,,0824.0,5.01,0.00,26.1,25.0,00.0,35.2,27.8,10.0,0000.0,0005.76,0002.84,0002.14
2021-11-10 20:16:00,,0824.0,5.00,0.00,26.1,25.1,00.0,35.2,27.8,10.0,0000.0,0005.72,0002.82,0002.14
2021-11-10 20:17:00,,0824.1,5.00,0.00,26.1,25.1,00.0,35.2,27.8,10.0,0000.0,0005.66,0002.82,0002.14
2021-11-10 20:18:00,,0824.0,5.00,0.00,26.1,25.1,00.0,35.2,27.8,10.1,0000.0,0005.75,0002.88,0002.15
2021-11-10 20:19:00,,0824.0,5.00,0.00,26.1,25.1,00.0,35.2,27.9,10.1,0000.0,0005.49,0002.86,0002.15
2021-11-10 20:20:00,,0824.1,5.00,0.00,26.1,25.1,00.0,35.2,27.9,10.2,0000.0,0005.84,0002.80,0002.13
2021-11-10 20:21:00,,0824.2,5.00,0.00,26.1,25.1,00.0,35.2,27.8,10.2,0000.0,0006.69,0002.80,0002.12
2021-11-10 20:22:00,,0824.2,5.02,0.00,26.1,25.1,00.0,35.2,27.8,10.3,0000.0,0007.54,0002.81,0002.11
2021-11-10 20:23:00,,0824.1,5.00,0.00,26.1,25.1,00.0,35.2,27.8,10.2,0000.0,0007.66,0002.83,0002.10
2021-11-10 20:24:00,,0824.2,5.00,0.00,26.1,25.1,00.0,35.2,27.8,10.3,0000.0,0007.17,0002.75,0002.07
2021-11-10 20:25:00,,0824.1,5.00,0.00,26.1,25.1,00.0,35.2,27.8,10.4,0000.0,0006.96,0002.68,0002.03
2021-11-10 20:26:00,,0824.2,5.00,0.00,26.1,25.1,00.0,35.2,27.8,10.3,0000.0,0007.02,0002.71,0002.02
2021-11-10 20:27:00,,0824.2,5.00,0.00,26.1,25.1,00.0,35.2,27.8,10.3,0000.0,0006.99,0002.69,0002.02
2021-11-10 20:28:00,,0824.1,4.99,0.00,26.1,25.1,00.0,35.2,27.8,10.4,0000.0,0007.07,0002.70,0002.02
2021-11-10 20:29:00,,0824.2,5.01,0.00,26.1,25.1,00.0,35.2,27.8,10.2,0000.0,0007.36,0002.66,0002.01
2021-11-10 20:30:00,,0824.1,5.00,0.00,26.0,25.0,00.0,35.2,27.7,10.0,0000.0,0007.51,0002.63,0002.00
2021-11-10 20:31:00,,0824.1,5.00,0.00,26.0,25.0,00.0,35.2,27.7,10.1,0000.0,0007.11,0002.64,0002.00
2021-11-10 20:32:00,,0824.0,5.00,0.00,26.0,25.0,00.0,35.2,27.7,10.4,0000.0,0006.39,0002.68,0002.00
2021-11-10 20:33:00,,0824.0,5.01,0.00,26.0,25.0,00.0,35.1,27.7,10.3,0000.0,0005.44,0002.68,0001.99
2021-11-10 20:34:00,,0824.1,5.00,0.00,26.0,25.0,00.0,35.1,27.8,10.1,0000.0,0004.94,0002.64,0002.00
2021-11-10 20:35:00,,0824.1,5.01,0.00,26.0,25.0,00.0,35.1,27.7,10.2,0000.0,0004.93,0002.65,0002.01
2021-11-10 20:36:00,,0824.1,5.00,0.00,26.0,24.9,00.0,35.1,27.6,10.2,0000.0,0005.04,0002.71,0002.03
2021-11-10 20:37:00,,0824.1,5.00,0.00,26.0,24.9,00.0,35.1,27.7,10.1,0000.0,0005.05,0002.72,0002.03
2021-11-10 20:38:00,,0824.1,5.00,0.00,26.0,25.0,00.0,35.1,27.7,10.1,0000.0,0004.90,0002.67,0002.02
2021-11-10 20:39:00,,0824.2,5.00,0.00,26.0,25.0,00.0,35.1,27.7,10.1,0000.0,0004.94,0002.70,0002.01
2021-11-10 20:40:00,,0824.2,5.00,0.00,26.0,24.9,00.0,35.1,27.6,10.2,0000.0,0004.57,0002.68,0002.01
2021-11-10 20:41:00,,0824.1,5.00,0.00,26.0,25.0,00.0,35.1,27.7,10.0,0000.0,0004.07,0002.64,0002.00
2021-11-10 20:42:00,,0824.2,5.00,0.00,26.0,25.0,00.0,35.1,27.7,10.0,0000.0,0004.35,0002.65,0002.00
2021-11-10 20:43:00,,0824.1,5.01,0.00,26.0,25.0,00.0,35.1,27.7,10.0,0000.0,0004.93,0002.66,0002.01
2021-11-10 20:44:00,,0824.2,4.99,0.00,26.0,25.0,00.0,35.1,27.7,10.1,0000.0,0004.74,0002.63,0002.01
2021-11-10 20:45:00,,0824.2,5.01,0.00,26.0,25.0,00.0,35.1,27.7,10.1,0000.0,0004.81,0002.65,0002.00
2021-11-10 20:46:00,,0824.2,5.00,0.00,26.0,24.9,00.0,35.1,27.6,10.2,0000.0,0004.92,0002.68,0002.00
2021-11-10 20:47:00,,0824.1,4.99,0.00,26.0,24.9,00.0,35.0,27.6,10.2,0000.0,0006.37,0002.68,0001.99
2021-11-10 20:48:00,,0824.1,5.00,0.00,26.0,24.9,00.0,35.0,27.6,10.1,0000.0,0006.49,0002.68,0002.00
2021-11-10 20:49:00,,0824.1,5.00,0.00,25.9,25.0,00.0,35.0,27.6,09.9,0000.0,0006.57,0002.70,0002.00
2021-11-10 20:50:00,,0824.1,4.99,0.00,25.9,25.0,00.0,35.0,27.6,10.0,0000.0,0006.64,0002.66,0002.00
2021-11-10 20:51:00,,0824.2,4.99,0.00,25.9,25.0,00.0,35.0,27.6,10.0,0000.0,0006.62,0002.64,0001.99
2021-11-10 20:52:00,,0824.2,4.99,0.00,25.9,25.0,00.0,35.0,27.7,10.0,0000.0,0006.59,0002.60,0001.97
2021-11-10 20:53:00,,0824.2,5.01,0.00,25.9,25.0,00.0,35.0,27.7,09.9,0000.0,0006.27,0002.55,0001.93
2021-11-10 20:54:00,,0824.1,5.01,0.00,25.9,25.0,00.0,35.0,27.6,09.9,0000.0,0005.50,0002.50,0001.91
2021-11-10 20:55:00,,0824.2,4.99,0.00,25.9,25.0,00.0,35.0,27.6,09.8,0000.0,0005.44,0002.48,0001.90
2021-11-10 20:56:00,,0824.1,5.00,0.00,25.9,25.0,00.0,35.0,27.6,09.8,0000.0,0005.35,0002.43,0001.88
2021-11-10 20:57:00,,0824.1,5.00,0.00,25.9,25.0,00.0,35.0,27.7,09.9,0000.0,0005.24,0002.37,0001.85
2021-11-10 20:58:00,,0824.1,5.00,0.00,25.9,25.0,00.0,35.0,27.7,09.8,0000.0,0003.66,0002.29,0001.82
2021-11-10 20:59:00,,0824.1,5.01,0.00,25.9,25.0,00.0,35.0,27.7,09.8,0000.0,0003.34,0002.21,0001.77
